Location: Unspecified
(0.0000°N, 0.0000°E)
Time: 01:45:25
(UTC+00:00)

Explorer 11/Cluster Stage 4 - Pass Details

Date: 18 April 2026
Orbit: 463 x 1174 km, 28.8° (Epoch: 15 May)

Event Time Altitude Azimuth Distance (km) Brightness Sun altitude
Rises 19:45:58 0° 275° (W) 3,667 11.3 -26.1°
Reaches altitude 10° 19:49:26 10° 261° (W) 2,584 10.1 -27.0°
Maximum altitude 19:54:04 22° 213° (SSW) 1,696 8.4 -28.1°
Enters shadow 19:55:13 21° 195° (SSW) 1,710 8.3 -28.4°
